Location: Absher
(46.5583°N, 107.9840°W)
Time: 07:37:40
(UTC+00:00)

AO-85 - Visible Passes

Search period start: 01 April 2023 00:00
Search period end: 11 April 2023 00:00
Orbit: 516 x 753 km, 64.8° (Epoch: 04 January)

Date Brightness Start Highest point End Pass type
(mag) Time Alt. Az. Time Alt. Az. Time Alt. Az.
07 Apr ? 12:02:04 10° SSE 12:05:17 21° ESE 12:08:23 10° ENE visible
09 Apr ? 11:06:44 10° SE 11:08:29 12° ESE 11:10:11 10° E visible
10 Apr ? 11:26:07 10° S 11:29:42 27° ESE 11:33:09 10° ENE visible
